Location: Middle Street
(51.7167°N, 0.0333°E)
Time: 02:07:42
(UTC+00:00)

Envisat - Pass Details

Date: 20 January 2021
Orbit: 764 x 766 km, 98.1° (Epoch: 28 February)

Event Time Altitude Azimuth Distance (km) Brightness Sun altitude
Rises 17:17:50 0° 182° (S) 3,222 6.6 -7.7°
Reaches altitude 10° 17:20:14 10° 189° (S) 2,300 5.9 -8.0°
Maximum altitude 17:25:05 45° 262° (W) 1,040 4.3 -8.7°
Drops below altitude 10° 17:29:59 10° 335° (NNW) 2,317 5.6 -9.4°
Sets 17:32:24 0° 342° (NNW) 3,248 6.2 -9.8°
